[[{"header":{"parameterUnit":"m.s-1","parameterCategory":1,"la1":30.2991,"la2":30.254,"lo1":-89.0895,"lo2":-89.0444,"dy":0.0017,"dx":0.0017,"nx":28,"ny":28,"refTime":"2025-03-27T03:00:00:Z","depth":0,"parameterNumber":2,"parameterNumberName":"U-component_of_WINDS"},"data":[0,0,0,0,0,0,0,0,0,0,0,0,0,0,0,0,0,0,0,0,0,0,0,0,0,0,0,0,0,0,0,0,0,0,0,0,0,0,0,0,0,0,0,0,0,0,0,0,0,0,0,0,0,0,0,0,0,0,-0.2011,-0.201,0,-0.1914,-0.1913,-0.1912,-0.1879,-0.1879,-0.1879,-0.188,-0.1778,-0.1775,-0.1772,0,0,0,0,0,0,0,0,0,0,0,0,0,-0.2167,-0.2164,-0.2011,-0.201,-0.2009,-0.1914,-0.1913,-0.1911,-0.1878,-0.1879,-0.1879,-0.188,-0.1779,-0.1776,-0.1772,0,0,0,0,0,0,0,0,0,0,0,0,0,-0.2088,-0.2163,-0.2011,-0.1981,-0.1977,-0.1914,-0.1913,-0.1911,-0.1878,-0.1879,-0.188,-0.188,-0.178,-0.1776,-0.1771,-0.1731,0,0,-0.1757,-0.1755,0,0,0,0,0,0,0,0,-0.2092,-0.2082,-0.1987,-0.1983,-0.1979,-0.1909,-0.1931,-0.1851,-0.1878,-0.1916,-0.188,-0.188,-0.1821,-0.1813,-0.1794,-0.1727,-0.1722,-0.1757,-0.1754,-0.1752,-0.1751,0,0,0,0,0,0,0,-0.2098,-0.2086,-0.1973,-0.1985,-0.198,-0.1972,-0.1961,-0.1915,-0.1866,-0.1913,-0.191,-0.1899,-0.1819,-0.1798,-0.1791,-0.1721,-0.1757,-0.1753,-0.175,-0.1748,-0.1617,-0.1616,0,0,0,0,0,0,-0.2108,-0.2091,-0.1976,-0.197,-0.2038,-0.1968,-0.1957,-0.1931,-0.1867,-0.1858,-0.1899,-0.1898,-0.1806,-0.1796,-0.1787,-0.1737,-0.1752,-0.1748,-0.1745,-0.1617,-0.1617,-0.1616,0,0,0,0,0,0,-0.2112,-0.2099,-0.198,-0.2029,-0.2014,-0.1965,-0.1936,-0.1929,-0.1908,-0.1856,-0.1847,-0.1886,-0.1806,-0.1794,-0.1746,-0.1733,-0.1746,-0.1742,-0.1618,-0.1617,-0.1616,-0.1635,0,0,0,0,0,0,-0.2117,-0.21,-0.2084,-0.2029,-0.2011,-0.194,-0.1936,-0.1926,-0.19,-0.1898,-0.1842,-0.1834,-0.1805,-0.1753,-0.1741,-0.1727,-0.1738,-0.1619,-0.1618,-0.1616,-0.1636,-0.1635,-0.1634,0,0,0,0,0,-0.2122,-0.2093,-0.2084,-0.207,-0.1991,-0.1939,-0.1929,-0.1898,-0.1899,-0.1883,-0.185,-0.1835,-0.1736,-0.1748,-0.1735,-0.1719,-0.162,-0.1618,-0.1617,-0.1636,-0.1635,-0.1634,0,0,0,0,0,0,-0.2147,-0.2085,-0.2074,-0.2026,-0.1989,-0.1934,-0.1913,-0.1898,-0.1858,-0.1858,-0.182,-0.1808,-0.1763,-0.1736,-0.175,-0.1677,-0.1677,-0.1673,-0.1696,-0.1695,-0.1695,-0.1702,-0.1734,0,0,0,0,0,-0.2147,-0.2111,-0.2059,-0.2021,-0.2003,-0.1961,-0.1938,-0.1917,-0.1876,-0.186,-0.1823,-0.1784,-0.1743,-0.1718,-0.1678,-0.1631,-0.1619,-0.1614,-0.1613,-0.1613,-0.161,-0.1584,-0.1581,-0.161,-0.161,-0.161,0,0,-0.2146,-0.2108,-0.2087,-0.2026,-0.1994,-0.1957,-0.1948,-0.1909,-0.1882,-0.1853,-0.1806,-0.1778,-0.1732,-0.1685,-0.1662,-0.1661,-0.1599,-0.1611,-0.1611,-0.1608,-0.1582,-0.1579,-0.1577,-0.1609,-0.1609,-0.161,0,0,-0.2127,-0.2094,-0.206,-0.2029,-0.1981,-0.1953,-0.1945,-0.1893,-0.1874,-0.1826,-0.1804,-0.1771,-0.1702,-0.167,-0.1645,-0.1615,-0.16,-0.1603,-0.16,-0.1575,-0.1573,-0.157,-0.156,-0.1557,-0.1599,-0.1599,-0.1599,0,-0.2132,-0.2076,-0.2044,-0.2007,-0.1981,-0.1954,-0.192,-0.189,-0.1832,-0.1814,-0.1814,-0.1728,-0.1695,-0.164,-0.1633,-0.1613,-0.1603,-0.1609,-0.1576,-0.1573,-0.1571,-0.156,-0.1556,-0.16,-0.16,-0.16,-0.16,0,-0.2085,-0.2047,-0.2025,-0.197,-0.1941,-0.1906,-0.1868,-0.1843,-0.1825,-0.1798,-0.175,-0.1709,-0.1661,-0.1646,-0.1628,-0.1589,-0.159,-0.1583,-0.1583,-0.1569,-0.1559,-0.1555,-0.1601,-0.1601,-0.1601,-0.16,0,0,-0.2078,-0.2007,-0.1999,-0.1975,-0.1921,-0.189,-0.1854,-0.1807,-0.1787,-0.1747,-0.1716,-0.1659,-0.1653,-0.1624,-0.1602,-0.158,-0.156,-0.1576,-0.1574,-0.1575,-0.1516,-0.1522,-0.1518,-0.155,-0.1549,-0.1548,-0.152,0,-0.2051,-0.1985,-0.1956,-0.1903,-0.1868,-0.1843,-0.1811,-0.1774,-0.1748,-0.1714,-0.1684,-0.1645,-0.1639,-0.1622,-0.1599,-0.1567,-0.1547,-0.1569,-0.152,-0.1518,-0.1533,-0.1512,-0.1518,-0.1493,-0.1515,-0.1515,-0.1514,0,-0.2012,-0.1974,-0.1918,-0.1869,-0.1853,-0.1825,-0.1781,-0.1748,-0.1707,-0.1689,-0.1658,-0.1637,-0.1597,-0.16,-0.1545,-0.156,-0.1538,-0.152,-0.1518,-0.1512,-0.1516,-0.1506,-0.1484,-0.1481,-0.1507,-0.1508,-0.1508,0,-0.2013,-0.1948,-0.1906,-0.1885,-0.1827,-0.1808,-0.1783,-0.1742,-0.1716,-0.1677,-0.1661,-0.1617,-0.1594,-0.1561,-0.1529,-0.1534,-0.1478,-0.1477,-0.1462,-0.1463,-0.1451,-0.1452,-0.1426,-0.1437,-0.1437,-0.1437,-0.1437,0,-0.1987,-0.1954,-0.1906,-0.188,-0.1842,-0.1809,-0.1772,-0.1745,-0.1709,-0.1677,-0.1653,-0.1624,-0.1583,-0.1549,-0.1523,-0.1482,-0.1472,-0.1456,-0.145,-0.1459,-0.1461,-0.1444,-0.1445,-0.1436,-0.1436,-0.1436,-0.1436,0,-0.1982,-0.1948,-0.1901,-0.1851,-0.1837,-0.1812,-0.1768,-0.1742,-0.1715,-0.1675,-0.1664,-0.1621,-0.158,-0.1545,-0.149,-0.1473,-0.1431,-0.1423,-0.1445,-0.1442,-0.1429,-0.1431,-0.1391,-0.1384,-0.14,-0.14,-0.1399,0,-0.1968,-0.1942,-0.1889,-0.1866,-0.1842,-0.1806,-0.178,-0.1746,-0.172,-0.1671,-0.1651,-0.1608,-0.1572,-0.1507,-0.1471,-0.1429,-0.142,-0.1409,-0.1414,-0.1424,-0.1421,-0.1423,-0.1421,-0.1409,-0.1409,-0.1409,-0.1409,0,-0.1947,-0.1931,-0.1896,-0.1854,-0.1824,-0.179,-0.1754,-0.1737,-0.1697,-0.1669,-0.1627,-0.1599,-0.1544,-0.1502,-0.1456,-0.143,-0.1413,-0.1408,-0.1403,-0.1411,-0.1426,-0.1418,-0.1445,-0.1409,-0.1409,-0.1409,-0.1409,-0.1409,-0.1937,-0.1913,-0.1872,-0.1833,-0.1803,-0.1771,-0.1745,-0.1715,-0.1679,-0.1632,-0.1614,-0.1571,-0.1531,-0.1468,-0.1442,-0.1407,-0.1405,-0.1397,-0.1395,-0.1393,-0.1395,-0.1431,-0.1399,-0.1399,-0.1399,-0.1399,-0.1399,0,-0.1915,-0.1887,-0.1852,-0.1804,-0.1773,-0.1761,-0.1722,-0.1697,-0.166,-0.1623,-0.1589,-0.1541,-0.15,-0.1461,-0.1418,-0.1398,-0.139,-0.1388,-0.139,-0.1384,-0.1399,-0.1409,-0.1396,-0.1396,-0.1396,-0.1396,-0.1396,-0.1396,-0.19,-0.1859,-0.1839,-0.1784,-0.1756,-0.1715,-0.1693,-0.1664,-0.1635,-0.1583,-0.1549,-0.1524,-0.1487,-0.1441,-0.1403,-0.1393,-0.1378,-0.1379,-0.1367,-0.1382,-0.1383,-0.1383,-0.1392,-0.1376,-0.1376,-0.1354,-0.1354,-0.1354]},{"header":{"parameterUnit":"m.s-1","parameterCategory":1,"la1":30.2991,"la2":30.254,"lo1":-89.0895,"lo2":-89.0444,"dy":0.0017,"dx":0.0017,"nx":28,"ny":28,"refTime":"2025-03-27T03:00:00:Z","depth":0,"parameterNumber":3,"parameterNumberName":"V-component_of_WINDS"},"data":[0,0,0,0,0,0,0,0,0,0,0,0,0,0,0,0,0,0,0,0,0,0,0,0,0,0,0,0,0,0,0,0,0,0,0,0,0,0,0,0,0,0,0,0,0,0,0,0,0,0,0,0,0,0,0,0,0,0,1.2278,1.2278,0,1.2265,1.2265,1.2265,1.2228,1.2228,1.2227,1.2226,1.2214,1.2214,1.2215,0,0,0,0,0,0,0,0,0,0,0,0,0,1.2271,1.2272,1.2278,1.2278,1.2278,1.2265,1.2265,1.2265,1.2228,1.2228,1.2227,1.2226,1.2214,1.2214,1.2215,0,0,0,0,0,0,0,0,0,0,0,0,0,1.2268,1.2272,1.2278,1.2258,1.2256,1.2265,1.2265,1.2265,1.2229,1.2227,1.2226,1.2225,1.2214,1.2214,1.2215,1.2243,0,0,1.2217,1.2217,0,0,0,0,0,0,0,0,1.2268,1.2268,1.2261,1.2259,1.2257,1.2247,1.2258,1.2258,1.2229,1.2239,1.2226,1.2225,1.2226,1.2226,1.2226,1.2242,1.2242,1.2217,1.2217,1.2218,1.2218,0,0,0,0,0,0,0,1.2269,1.2269,1.2273,1.2261,1.2259,1.225,1.2248,1.2258,1.224,1.2238,1.2235,1.2234,1.2225,1.2225,1.2225,1.2242,1.2217,1.2217,1.2218,1.2218,1.2281,1.2282,0,0,0,0,0,0,1.2272,1.2269,1.2273,1.2273,1.226,1.2251,1.2249,1.2252,1.2239,1.2236,1.2235,1.2233,1.2225,1.2225,1.2225,1.2257,1.2218,1.2218,1.2219,1.2279,1.2281,1.2282,0,0,0,0,0,0,1.2272,1.2272,1.2274,1.227,1.227,1.2252,1.2256,1.2252,1.2252,1.2237,1.2234,1.2239,1.2224,1.2224,1.2239,1.2256,1.2218,1.2219,1.2278,1.228,1.2282,1.2321,0,0,0,0,0,0,1.2271,1.2272,1.2283,1.2271,1.227,1.2288,1.2257,1.2253,1.2254,1.225,1.224,1.2237,1.2223,1.2238,1.2239,1.2256,1.222,1.2276,1.2279,1.2281,1.2318,1.2324,1.233,0,0,0,0,0,1.2271,1.2295,1.2283,1.2284,1.2282,1.2289,1.2288,1.2271,1.2255,1.2265,1.2256,1.2238,1.2254,1.224,1.2241,1.2258,1.2275,1.2278,1.2281,1.2316,1.2323,1.2329,0,0,0,0,0,0,1.2309,1.2293,1.228,1.23,1.2296,1.2283,1.2295,1.228,1.228,1.2277,1.2256,1.2254,1.2272,1.2266,1.2251,1.2285,1.2261,1.2265,1.2288,1.2295,1.23,1.2301,1.222,0,0,0,0,0,1.232,1.2327,1.2312,1.2331,1.2329,1.2313,1.2315,1.2302,1.2297,1.2295,1.2287,1.2283,1.2287,1.2291,1.2294,1.2317,1.2315,1.233,1.2336,1.234,1.2343,1.2356,1.2362,1.2292,1.2292,1.2292,0,0,1.2342,1.2334,1.2339,1.2338,1.2333,1.2341,1.2311,1.2321,1.2326,1.2297,1.231,1.2304,1.2298,1.2318,1.2326,1.2314,1.2362,1.2344,1.2348,1.2348,1.2359,1.2366,1.2372,1.2294,1.2293,1.2293,0,0,1.2387,1.2381,1.2396,1.2392,1.2386,1.2374,1.2378,1.2367,1.2362,1.2375,1.2353,1.2359,1.2367,1.2364,1.2364,1.2407,1.239,1.2408,1.2438,1.245,1.2456,1.246,1.2476,1.2482,1.2412,1.2412,1.2412,0,1.2415,1.2425,1.2406,1.2416,1.2417,1.239,1.2406,1.2403,1.2398,1.2399,1.2385,1.2395,1.2389,1.2408,1.2418,1.2419,1.2423,1.241,1.2456,1.2461,1.2465,1.248,1.2486,1.2414,1.2414,1.2413,1.2413,0,1.2461,1.2468,1.2481,1.2477,1.2478,1.2491,1.2474,1.2478,1.2465,1.2456,1.247,1.2462,1.2463,1.2467,1.2454,1.2484,1.2476,1.246,1.2436,1.2474,1.2488,1.2494,1.2417,1.2416,1.2416,1.2415,0,0,1.2529,1.2513,1.2519,1.2516,1.2507,1.2513,1.2525,1.2525,1.253,1.2527,1.2537,1.2544,1.2529,1.2528,1.2515,1.2526,1.2561,1.2508,1.2507,1.2518,1.2594,1.2606,1.2613,1.255,1.2551,1.2552,1.2594,0,1.2571,1.259,1.2573,1.2596,1.2602,1.2578,1.2588,1.2584,1.2575,1.258,1.257,1.2576,1.2555,1.2555,1.2564,1.2555,1.2576,1.2551,1.2559,1.256,1.2562,1.262,1.2634,1.2674,1.2599,1.26,1.2601,0,1.2623,1.2622,1.2645,1.2635,1.2637,1.2647,1.2646,1.2651,1.2646,1.2639,1.2638,1.2622,1.2633,1.261,1.2625,1.2609,1.2611,1.2607,1.2608,1.2609,1.2583,1.2623,1.2687,1.2693,1.2609,1.2608,1.2608,0,1.267,1.2676,1.269,1.2689,1.2677,1.2684,1.268,1.2673,1.2675,1.2675,1.2676,1.2677,1.2678,1.2679,1.2664,1.2648,1.2682,1.2657,1.2677,1.2677,1.2685,1.2685,1.2751,1.2686,1.2686,1.2686,1.2686,0,1.2719,1.2735,1.2712,1.2721,1.2737,1.2718,1.2735,1.2727,1.2722,1.2729,1.2708,1.2716,1.2695,1.27,1.2689,1.2704,1.2704,1.2699,1.2696,1.2701,1.2702,1.2703,1.27,1.2687,1.2687,1.2687,1.2686,0,1.2776,1.2761,1.2775,1.2763,1.276,1.2773,1.2762,1.277,1.276,1.277,1.2771,1.2755,1.2761,1.2745,1.2749,1.2741,1.2762,1.2754,1.2764,1.2762,1.2783,1.2781,1.2852,1.286,1.279,1.279,1.2791,0,1.2808,1.2819,1.2808,1.2811,1.2808,1.2813,1.2815,1.2796,1.2799,1.2794,1.2803,1.2806,1.2808,1.2818,1.2807,1.2809,1.2802,1.2826,1.2802,1.2807,1.2803,1.2802,1.2804,1.2831,1.2832,1.2833,1.2834,0,1.2868,1.286,1.2862,1.2863,1.2865,1.2865,1.2863,1.2867,1.2847,1.2851,1.2856,1.2858,1.2861,1.2865,1.2865,1.286,1.2844,1.2841,1.2846,1.2852,1.2857,1.2855,1.2778,1.284,1.2839,1.2839,1.2838,1.2838,1.2913,1.2922,1.2915,1.2919,1.2916,1.2915,1.2922,1.2912,1.2916,1.2917,1.2906,1.2913,1.2908,1.2906,1.2904,1.291,1.2898,1.2905,1.2907,1.2909,1.2913,1.2856,1.291,1.2909,1.2909,1.2909,1.2909,0,1.2972,1.2966,1.297,1.2968,1.2971,1.2955,1.2952,1.2956,1.2963,1.2959,1.2961,1.2968,1.2971,1.2961,1.2963,1.297,1.2963,1.2971,1.2971,1.297,1.2923,1.2918,1.2977,1.2977,1.2977,1.2977,1.2977,1.2977,1.3003,1.3017,1.3008,1.3021,1.3015,1.3022,1.3022,1.3021,1.3018,1.3025,1.3028,1.3021,1.3015,1.3017,1.302,1.3016,1.3019,1.303,1.3024,1.298,1.2974,1.2967,1.2963,1.303,1.3031,1.3072,1.3072,1.3072]}]]